• In Hungary
  • List of Countries
  • For 7 days
  • Water Temperature
  • Satellite Maps
  • Weather Map
  • News
  • Weather Widgets
  • user-avatar
    Login

    Hourly Weather Mokryy Log

    Today, 16 August, Thursday

    Time Temperature Precipitation Wind Pressure Humidity
    00:00 +26°C° 0 mm 3 mps 757 mmHg 34%
    01:00 +25°C° 0 mm 3 mps 757 mmHg 36%
    02:00 +24°C° 0 mm 3 mps 757 mmHg 38%
    03:00 +23°C° 0 mm 2 mps 757 mmHg 44%
    04:00 +23°C° 0 mm 2 mps 757 mmHg 45%
    05:00 +21°C° 0 mm 3 mps 757 mmHg 47%
    06:00 +21°C° 0 mm 3 mps 757 mmHg 48%
    07:00 +25°C° 0 mm 3 mps 757 mmHg 43%
    08:00 +27°C° 0 mm 3 mps 757 mmHg 38%
    09:00 +31°C° 0 mm 3 mps 757 mmHg 31%
    10:00 +33°C° 0 mm 3 mps 757 mmHg 29%
    11:00 +35°C° 0 mm 3 mps 757 mmHg 26%
    12:00 +36°C° 0 mm 3 mps 757 mmHg 24%
    13:00 +37°C° 0 mm 3 mps 756 mmHg 23%
    14:00 +37°C° 0 mm 3 mps 756 mmHg 22%
    15:00 +38°C° 0 mm 3 mps 756 mmHg 21%
    16:00 +37°C° 0 mm 3 mps 756 mmHg 22%
    17:00 +36°C° 0 mm 2 mps 756 mmHg 23%
    18:00 +35°C° 0 mm 2 mps 755 mmHg 25%
    19:00 +34°C° 0 mm 2 mps 755 mmHg 27%
    20:00 +32°C° 0 mm 2 mps 755 mmHg 28%
    21:00 +30°C° 0 mm 2 mps 756 mmHg 30%
    22:00 +30°C° 0 mm 2 mps 756 mmHg 32%
    23:00 +29°C° 0 mm 2 mps 756 mmHg 33%

    Tomorrow, 17 August, Friday

    Time Temperature Precipitation Wind Pressure Humidity
    00:00 +28°C° 0 mm 2 mps 756 mmHg 34%
    01:00 +28°C° 0 mm 2 mps 756 mmHg 35%
    02:00 +27°C° 0 mm 2 mps 756 mmHg 36%
    03:00 +26°C° 0 mm 2 mps 756 mmHg 37%
    04:00 +26°C° 0 mm 1 mps 756 mmHg 38%
    05:00 +26°C° 0 mm 1 mps 756 mmHg 39%
    06:00 +25°C° 0 mm 1 mps 756 mmHg 40%
    07:00 +27°C° 0 mm 2 mps 756 mmHg 36%
    08:00 +29°C° 0 mm 2 mps 756 mmHg 33%
    09:00 +31°C° 0 mm 2 mps 756 mmHg 29%
    10:00 +34°C° 0 mm 3 mps 756 mmHg 26%
    11:00 +35°C° 0 mm 3 mps 756 mmHg 24%
    12:00 +37°C° 0 mm 4 mps 756 mmHg 21%
    13:00 +37°C° 0 mm 4 mps 755 mmHg 21%
    14:00 +37°C° 0 mm 4 mps 755 mmHg 20%
    15:00 +37°C° 0 mm 3 mps 755 mmHg 20%
    16:00 +36°C° 0 mm 3 mps 755 mmHg 21%
    17:00 +35°C° 0 mm 3 mps 755 mmHg 23%
    18:00 +34°C° 0 mm 3 mps 755 mmHg 24%
    19:00 +33°C° 0 mm 3 mps 755 mmHg 27%
    20:00 +30°C° 0 mm 3 mps 755 mmHg 29%
    21:00 +29°C° 0 mm 3 mps 755 mmHg 32%
    22:00 +28°C° 0 mm 3 mps 755 mmHg 33%
    23:00 +27°C° 0 mm 3 mps 755 mmHg 35%

    Day after tomorrow, 18 August, Saturday

    Time Temperature Precipitation Wind Pressure Humidity
    00:00 +26°C° 0 mm 4 mps 755 mmHg 37%
    01:00 +26°C° 0 mm 4 mps 755 mmHg 40%
    02:00 +25°C° 0 mm 4 mps 755 mmHg 43%
    03:00 +25°C° 0 mm 3 mps 755 mmHg 46%
    04:00 +23°C° 0 mm 4 mps 755 mmHg 51%
    05:00 +23°C° 0 mm 4 mps 755 mmHg 56%
    06:00 +22°C° 0 mm 4 mps 755 mmHg 61%
    07:00 +25°C° 0 mm 4 mps 756 mmHg 56%
    08:00 +27°C° 0 mm 5 mps 756 mmHg 51%
    09:00 +29°C° 0 mm 6 mps 756 mmHg 46%
    10:00 +32°C° 0 mm 6 mps 756 mmHg 40%
    11:00 +33°C° 0 mm 6 mps 756 mmHg 34%
    12:00 +35°C° 0 mm 6 mps 756 mmHg 29%
    13:00 +35°C° 0 mm 6 mps 755 mmHg 28%
    14:00 +35°C° 0 mm 6 mps 755 mmHg 28%
    15:00 +35°C° 0 mm 6 mps 755 mmHg 28%
    16:00 +34°C° 0 mm 6 mps 755 mmHg 30%
    17:00 +33°C° 0 mm 6 mps 755 mmHg 32%
    18:00 +32°C° 0 mm 6 mps 755 mmHg 33%
    19:00 +30°C° 0 mm 6 mps 756 mmHg 36%
    20:00 +28°C° 0 mm 6 mps 756 mmHg 38%
    21:00 +27°C° 0 mm 6 mps 757 mmHg 41%
    22:00 +26°C° 0 mm 6 mps 757 mmHg 40%
    23:00 +24°C° 0 mm 6 mps 757 mmHg 39%

    19 August, Sunday

    Time Temperature Precipitation Wind Pressure Humidity
    00:00 +23°C° 0 mm 6 mps 757 mmHg 38%
    01:00 +22°C° 0 mm 5 mps 757 mmHg 40%
    02:00 +22°C° 0 mm 5 mps 757 mmHg 41%
    03:00 +21°C° 0 mm 5 mps 757 mmHg 43%
    04:00 +20°C° 0 mm 5 mps 758 mmHg 44%
    05:00 +20°C° 0 mm 5 mps 758 mmHg 46%
    06:00 +19°C° 0 mm 5 mps 758 mmHg 48%
    07:00 +21°C° 0 mm 6 mps 758 mmHg 43%
    08:00 +23°C° 0 mm 6 mps 758 mmHg 39%
    09:00 +26°C° 0 mm 6 mps 758 mmHg 34%
    10:00 +27°C° 0 mm 6 mps 758 mmHg 31%
    11:00 +28°C° 0 mm 6 mps 758 mmHg 28%
    12:00 +29°C° 0 mm 6 mps 758 mmHg 25%
    13:00 +30°C° 0 mm 6 mps 758 mmHg 24%
    14:00 +30°C° 0 mm 6 mps 757 mmHg 23%
    15:00 +30°C° 0 mm 6 mps 757 mmHg 22%
    16:00 +30°C° 0 mm 6 mps 757 mmHg 23%
    17:00 +29°C° 0 mm 6 mps 757 mmHg 23%
    18:00 +29°C° 0 mm 5 mps 757 mmHg 24%
    19:00 +27°C° 0 mm 5 mps 757 mmHg 27%
    20:00 +25°C° 0 mm 4 mps 758 mmHg 29%
    21:00 +22°C° 0 mm 4 mps 758 mmHg 32%
    22:00 +21°C° 0 mm 4 mps 758 mmHg 34%
    23:00 +20°C° 0 mm 4 mps 758 mmHg 35%

    20 August, Monday

    Time Temperature Precipitation Wind Pressure Humidity
    00:00 +20°C° 0 mm 4 mps 758 mmHg 37%
    01:00 +19°C° 0 mm 4 mps 758 mmHg 39%
    02:00 +19°C° 0 mm 4 mps 758 mmHg 41%
    03:00 +18°C° 0 mm 4 mps 758 mmHg 43%
    04:00 +18°C° 0 mm 4 mps 758 mmHg 46%
    05:00 +17°C° 0 mm 4 mps 758 mmHg 48%
    06:00 +17°C° 0 mm 4 mps 758 mmHg 50%
    07:00 +19°C° 0 mm 4 mps 758 mmHg 44%
    08:00 +22°C° 0 mm 4 mps 759 mmHg 38%
    09:00 +25°C° 0 mm 5 mps 759 mmHg 32%
    10:00 +27°C° 0 mm 5 mps 759 mmHg 28%
    11:00 +28°C° 0 mm 4 mps 759 mmHg 25%
    12:00 +29°C° 0 mm 4 mps 758 mmHg 21%
    13:00 +30°C° 0 mm 4 mps 758 mmHg 21%
    14:00 +30°C° 0 mm 5 mps 758 mmHg 20%
    15:00 +32°C° 0 mm 5 mps 758 mmHg 19%
    16:00 +30°C° 0 mm 5 mps 758 mmHg 20%
    17:00 +29°C° 0 mm 5 mps 758 mmHg 21%
    18:00 +29°C° 0 mm 5 mps 758 mmHg 22%
    19:00 +27°C° 0 mm 4 mps 758 mmHg 25%
    20:00 +25°C° 0 mm 4 mps 759 mmHg 27%
    21:00 +22°C° 0 mm 3 mps 759 mmHg 30%
    22:00 +21°C° 0 mm 3 mps 759 mmHg 31%
    23:00 +20°C° 0 mm 3 mps 759 mmHg 33%

    21 August, Tuesday

    Time Temperature Precipitation Wind Pressure Humidity
    00:00 +19°C° 0 mm 3 mps 759 mmHg 34%
    01:00 +19°C° 0 mm 3 mps 759 mmHg 36%
    02:00 +18°C° 0 mm 3 mps 759 mmHg 37%
    03:00 +18°C° 0 mm 3 mps 759 mmHg 39%
    04:00 +18°C° 0 mm 3 mps 759 mmHg 40%
    05:00 +17°C° 0 mm 2 mps 759 mmHg 41%
    06:00 +17°C° 0 mm 2 mps 760 mmHg 42%
    07:00 +20°C° 0 mm 2 mps 760 mmHg 36%
    08:00 +24°C° 0 mm 3 mps 760 mmHg 31%
    09:00 +27°C° 0 mm 3 mps 760 mmHg 26%
    10:00 +28°C° 0 mm 3 mps 760 mmHg 23%
    11:00 +29°C° 0 mm 3 mps 760 mmHg 21%
    12:00 +31°C° 0 mm 3 mps 760 mmHg 19%
    13:00 +31°C° 0 mm 3 mps 759 mmHg 18%
    14:00 +33°C° 0 mm 3 mps 759 mmHg 17%
    15:00 +33°C° 0 mm 3 mps 759 mmHg 16%
    16:00 +33°C° 0 mm 3 mps 759 mmHg 17%
    17:00 +32°C° 0 mm 4 mps 759 mmHg 18%
    18:00 +32°C° 0 mm 4 mps 759 mmHg 19%
    19:00 +29°C° 0 mm 4 mps 759 mmHg 21%
    20:00 +27°C° 0 mm 3 mps 759 mmHg 24%
    21:00 +24°C° 0 mm 3 mps 759 mmHg 27%
    22:00 +24°C° 0 mm 3 mps 759 mmHg 28%
    23:00 +22°C° 0 mm 3 mps 759 mmHg 28%
    Show more